Time,TemperatureF,DewpointF,PressureIn,WindDirection,WindDirectionDegrees,WindSpeedMPH,WindSpeedGustMPH,Humidity,HourlyPrecipIn,Conditions,Clouds,dailyrainin,SoftwareType,DateUTC
2013-11-11 00:00:00,59.5,55.3,30.22,SSE,151,0.0,0.0,86,0.00,,,0.00,Wunderground v.1.15,2013-11-11 06:00:00,
2013-11-11 00:05:00,59.5,55.3,30.22,SSE,151,0.0,0.0,86,0.00,,,0.00,Wunderground v.1.15,2013-11-11 06:05:00,
2013-11-11 00:15:00,59.5,55.0,30.22,SSE,151,0.0,0.0,85,0.00,,,0.00,Wunderground v.1.15,2013-11-11 06:15:00,
2013-11-11 00:25:00,59.5,55.3,30.22,SSE,151,0.0,1.0,86,0.00,,,0.00,Wunderground v.1.15,2013-11-11 06:25:00,
2013-11-11 00:30:00,59.5,55.0,30.21,SSE,151,1.0,1.0,85,0.00,,,0.00,Wunderground v.1.15,2013-11-11 06:30:00,
2013-11-11 00:40:00,59.5,54.7,30.21,SSE,151,0.0,1.0,84,0.00,,,0.00,Wunderground v.1.15,2013-11-11 06:40:00,
2013-11-11 00:45:00,59.5,54.7,30.21,SSE,151,0.0,1.0,84,0.00,,,0.00,Wunderground v.1.15,2013-11-11 06:45:00,
2013-11-11 00:55:00,59.3,54.5,30.21,SSE,151,0.0,0.0,84,0.00,,,0.00,Wunderground v.1.15,2013-11-11 06:55:00,
2013-11-11 01:00:00,59.3,54.8,30.21,SSE,151,0.0,0.0,85,0.00,,,0.00,Wunderground v.1.15,2013-11-11 07:00:00,
2013-11-11 01:10:00,59.2,54.7,30.21,SSE,151,0.0,0.0,85,0.00,,,0.00,Wunderground v.1.15,2013-11-11 07:10:00,
2013-11-11 01:15:00,59.2,54.7,30.21,SSE,151,0.0,0.0,85,0.00,,,0.00,Wunderground v.1.15,2013-11-11 07:15:00,
2013-11-11 01:25:00,58.7,54.2,30.21,SSE,151,0.0,0.0,85,0.00,,,0.00,Wunderground v.1.15,2013-11-11 07:25:00,
2013-11-11 01:30:00,58.4,53.9,30.20,SSE,151,0.0,0.0,85,0.00,,,0.00,Wunderground v.1.15,2013-11-11 07:30:00,
2013-11-11 01:40:00,57.8,53.6,30.20,SSE,151,0.0,0.0,86,0.00,,,0.00,Wunderground v.1.15,2013-11-11 07:40:00,
2013-11-11 01:45:00,57.3,53.1,30.20,SSE,151,0.0,0.0,86,0.00,,,0.00,Wunderground v.1.15,2013-11-11 07:45:00,
2013-11-11 01:55:00,56.5,52.4,30.20,SSE,151,0.0,0.0,86,0.00,,,0.00,Wunderground v.1.15,2013-11-11 07:55:00,
2013-11-11 02:01:00,56.2,52.4,30.20,SSE,151,0.0,0.0,87,0.00,,,0.00,Wunderground v.1.15,2013-11-11 08:01:00,
2013-11-11 02:10:00,55.4,51.6,30.20,SSE,151,0.0,0.0,87,0.00,,,0.00,Wunderground v.1.15,2013-11-11 08:10:00,
2013-11-11 02:20:00,54.7,51.2,30.21,SSE,151,0.0,0.0,88,0.00,,,0.00,Wunderground v.1.15,2013-11-11 08:20:00,
2013-11-11 02:25:00,54.2,51.0,30.21,SSE,151,0.0,0.0,89,0.00,,,0.00,Wunderground v.1.15,2013-11-11 08:25:00,
2013-11-11 02:35:00,53.6,50.4,30.20,SSE,151,0.0,0.0,89,0.00,,,0.00,Wunderground v.1.15,2013-11-11 08:35:00,
2013-11-11 02:41:00,53.3,50.1,30.20,SSE,151,0.0,0.0,89,0.00,,,0.00,Wunderground v.1.15,2013-11-11 08:41:00,
2013-11-11 02:50:00,52.8,49.9,30.20,SSE,151,0.0,0.0,90,0.00,,,0.00,Wunderground v.1.15,2013-11-11 08:50:00,
2013-11-11 02:55:00,52.6,49.8,30.20,SSE,151,0.0,0.0,90,0.00,,,0.00,Wunderground v.1.15,2013-11-11 08:55:00,
2013-11-11 03:05:00,52.0,49.5,30.20,SSE,151,0.0,0.0,91,0.00,,,0.00,Wunderground v.1.15,2013-11-11 09:05:00,
2013-11-11 03:11:00,51.7,49.2,30.20,SSE,151,0.0,0.0,91,0.00,,,0.00,Wunderground v.1.15,2013-11-11 09:11:00,
2013-11-11 03:20:00,51.3,48.8,30.20,SSE,151,0.0,0.0,91,0.00,,,0.00,Wunderground v.1.15,2013-11-11 09:20:00,
2013-11-11 03:30:00,51.0,48.8,30.20,SSE,151,0.0,0.0,92,0.00,,,0.00,Wunderground v.1.15,2013-11-11 09:30:00,
2013-11-11 03:35:00,50.8,48.6,30.20,SSE,151,0.0,0.0,92,0.00,,,0.00,Wunderground v.1.15,2013-11-11 09:35:00,
2013-11-11 03:45:00,50.5,48.3,30.20,SSE,151,0.0,0.0,92,0.00,,,0.00,Wunderground v.1.15,2013-11-11 09:45:00,
2013-11-11 03:50:00,50.4,48.2,30.20,SSE,151,0.0,0.0,92,0.00,,,0.00,Wunderground v.1.15,2013-11-11 09:50:00,
2013-11-11 04:00:00,49.9,47.7,30.19,SSE,151,0.0,0.0,92,0.00,,,0.00,Wunderground v.1.15,2013-11-11 10:00:00,
2013-11-11 04:05:00,49.9,48.0,30.19,SSE,151,0.0,0.0,93,0.00,,,0.00,Wunderground v.1.15,2013-11-11 10:05:00,
2013-11-11 04:15:00,49.6,47.7,30.20,SSE,151,0.0,0.0,93,0.00,,,0.00,Wunderground v.1.15,2013-11-11 10:15:00,
2013-11-11 04:20:00,49.6,47.7,30.20,SSE,151,0.0,0.0,93,0.00,,,0.00,Wunderground v.1.15,2013-11-11 10:20:00,
2013-11-11 04:30:00,49.5,47.8,30.20,SSE,151,0.0,0.0,94,0.00,,,0.00,Wunderground v.1.15,2013-11-11 10:30:00,
2013-11-11 04:35:00,49.4,47.7,30.20,SSE,151,0.0,0.0,94,0.00,,,0.00,Wunderground v.1.15,2013-11-11 10:35:00,
2013-11-11 04:41:00,49.4,47.7,30.20,SSE,151,0.0,0.0,94,0.00,,,0.00,Wunderground v.1.15,2013-11-11 10:41:00,
2013-11-11 04:50:00,49.2,47.8,30.20,SSE,151,0.0,0.0,95,0.00,,,0.00,Wunderground v.1.15,2013-11-11 10:50:00,
2013-11-11 04:55:00,49.1,47.7,30.20,SSE,151,0.0,0.0,95,0.00,,,0.00,Wunderground v.1.15,2013-11-11 10:55:00,
2013-11-11 05:05:00,48.9,47.5,30.20,SSE,151,0.0,0.0,95,0.00,,,0.00,Wunderground v.1.15,2013-11-11 11:05:00,
2013-11-11 05:11:00,48.8,47.4,30.20,SSE,151,0.0,0.0,95,0.00,,,0.00,Wunderground v.1.15,2013-11-11 11:11:00,
2013-11-11 05:20:00,48.6,47.2,30.20,SSE,151,0.0,0.0,95,0.00,,,0.00,Wunderground v.1.15,2013-11-11 11:20:00,
2013-11-11 05:26:00,48.5,47.1,30.20,SSE,151,0.0,0.0,95,0.00,,,0.00,Wunderground v.1.15,2013-11-11 11:26:00,
2013-11-11 05:35:00,48.3,47.2,30.20,SSE,151,0.0,0.0,96,0.00,,,0.00,Wunderground v.1.15,2013-11-11 11:35:00,
2013-11-11 05:41:00,48.3,47.2,30.20,SSE,151,0.0,0.0,96,0.00,,,0.00,Wunderground v.1.15,2013-11-11 11:41:00,
2013-11-11 05:50:00,48.2,47.1,30.21,SSE,151,0.0,0.0,96,0.00,,,0.00,Wunderground v.1.15,2013-11-11 11:50:00,
2013-11-11 05:55:00,48.0,46.9,30.21,SSE,151,0.0,0.0,96,0.00,,,0.00,Wunderground v.1.15,2013-11-11 11:55:00,
2013-11-11 06:01:00,48.0,46.9,30.22,SSE,151,0.0,0.0,96,0.00,,,0.00,Wunderground v.1.15,2013-11-11 12:01:00,
2013-11-11 06:10:00,47.9,46.8,30.22,SSE,151,0.0,0.0,96,0.00,,,0.00,Wunderground v.1.15,2013-11-11 12:10:00,
2013-11-11 06:16:00,47.9,46.8,30.22,SSE,151,0.0,0.0,96,0.00,,,0.00,Wunderground v.1.15,2013-11-11 12:16:00,
2013-11-11 06:25:00,47.9,47.1,30.22,SSE,151,0.0,0.0,97,0.00,,,0.00,Wunderground v.1.15,2013-11-11 12:25:00,
2013-11-11 06:30:00,47.9,47.1,30.22,SSE,151,0.0,0.0,97,0.00,,,0.00,Wunderground v.1.15,2013-11-11 12:30:00,
2013-11-11 06:40:00,47.7,46.9,30.22,SSE,151,0.0,0.0,97,0.00,,,0.00,Wunderground v.1.15,2013-11-11 12:40:00,
2013-11-11 06:46:00,47.7,46.9,30.22,SSE,151,0.0,0.0,97,0.00,,,0.00,Wunderground v.1.15,2013-11-11 12:46:00,
2013-11-11 06:55:00,47.7,46.9,30.22,SSE,151,0.0,0.0,97,0.00,,,0.00,Wunderground v.1.15,2013-11-11 12:55:00,
2013-11-11 07:01:00,47.7,46.9,30.23,SSE,151,0.0,0.0,97,0.00,,,0.00,Wunderground v.1.15,2013-11-11 13:01:00,
2013-11-11 07:11:00,47.9,47.4,30.23,SSE,151,0.0,0.0,98,0.00,,,0.00,Wunderground v.1.15,2013-11-11 13:11:00,
2013-11-11 07:20:00,48.0,47.7,30.23,SSE,151,0.0,0.0,99,0.00,,,0.00,Wunderground v.1.15,2013-11-11 13:20:00,
2013-11-11 07:26:00,48.2,48.2,30.23,SSE,151,0.0,0.0,100,0.00,,,0.00,Wunderground v.1.15,2013-11-11 13:26:00,
2013-11-11 07:35:00,48.6,48.6,30.24,SSE,151,0.0,0.0,100,0.00,,,0.00,Wunderground v.1.15,2013-11-11 13:35:00,
2013-11-11 07:41:00,48.8,48.8,30.24,SSE,151,0.0,0.0,100,0.00,,,0.00,Wunderground v.1.15,2013-11-11 13:41:00,
2013-11-11 07:50:00,49.1,49.1,30.24,SSE,151,0.0,0.0,100,0.00,,,0.00,Wunderground v.1.15,2013-11-11 13:50:00,
2013-11-11 07:56:00,49.4,49.4,30.24,SSE,151,0.0,0.0,100,0.00,,,0.00,Wunderground v.1.15,2013-11-11 13:56:00,
2013-11-11 08:05:00,50.4,50.4,30.25,SSE,151,0.0,0.0,100,0.00,,,0.00,Wunderground v.1.15,2013-11-11 14:05:00,
2013-11-11 08:11:00,50.8,50.8,30.25,SSE,151,0.0,0.0,100,0.00,,,0.00,Wunderground v.1.15,2013-11-11 14:11:00,
2013-11-11 08:20:00,51.7,51.7,30.25,SSE,151,0.0,0.0,100,0.00,,,0.00,Wunderground v.1.15,2013-11-11 14:20:00,
2013-11-11 08:30:00,52.5,52.5,30.25,SSE,151,0.0,0.0,100,0.00,,,0.00,Wunderground v.1.15,2013-11-11 14:30:00,
2013-11-11 08:36:00,52.9,52.9,30.25,SSE,151,0.0,0.0,100,0.00,,,0.00,Wunderground v.1.15,2013-11-11 14:36:00,
2013-11-11 08:45:00,53.9,53.9,30.25,SSE,151,0.0,0.0,100,0.00,,,0.00,Wunderground v.1.15,2013-11-11 14:45:00,
2013-11-11 08:51:00,54.4,54.4,30.25,SSE,151,0.0,0.0,100,0.00,,,0.00,Wunderground v.1.15,2013-11-11 14:51:00,
2013-11-11 09:00:00,54.7,54.7,30.25,SSE,151,0.0,0.0,100,0.00,,,0.00,Wunderground v.1.15,2013-11-11 15:00:00,
2013-11-11 09:06:00,54.7,54.7,30.25,SSE,151,0.0,0.0,100,0.00,,,0.00,Wunderground v.1.15,2013-11-11 15:06:00,
2013-11-11 09:15:00,55.0,55.0,30.26,SSE,151,0.0,0.0,100,0.00,,,0.00,Wunderground v.1.15,2013-11-11 15:15:00,
2013-11-11 09:25:00,55.4,55.4,30.26,SSE,151,0.0,0.0,100,0.00,,,0.00,Wunderground v.1.15,2013-11-11 15:25:00,
2013-11-11 09:30:00,55.9,55.9,30.25,SSE,151,0.0,0.0,100,0.00,,,0.00,Wunderground v.1.15,2013-11-11 15:30:00,
2013-11-11 09:36:00,56.5,56.2,30.25,SSE,151,0.0,0.0,99,0.00,,,0.00,Wunderground v.1.15,2013-11-11 15:36:00,
2013-11-11 09:45:00,57.8,55.2,30.25,SSE,151,0.0,0.0,91,0.00,,,0.00,Wunderground v.1.15,2013-11-11 15:45:00,
2013-11-11 09:55:00,59.2,54.0,30.25,SSE,151,0.0,0.0,83,0.00,,,0.00,Wunderground v.1.15,2013-11-11 15:55:00,
2013-11-11 10:00:00,59.8,53.6,30.25,SSE,151,0.0,0.0,80,0.00,,,0.00,Wunderground v.1.15,2013-11-11 16:00:00,
2013-11-11 10:10:00,61.3,53.7,30.25,SSE,151,0.0,0.0,76,0.00,,,0.00,Wunderground v.1.15,2013-11-11 16:10:00,
2013-11-11 10:15:00,62.1,52.6,30.24,SSE,151,0.0,0.0,71,0.00,,,0.00,Wunderground v.1.15,2013-11-11 16:15:00,
2013-11-11 10:25:00,63.4,51.8,30.24,SSE,151,0.0,0.0,66,0.00,,,0.00,Wunderground v.1.15,2013-11-11 16:25:00,
2013-11-11 10:31:00,64.2,52.2,30.24,SSE,151,0.0,0.0,65,0.00,,,0.00,Wunderground v.1.15,2013-11-11 16:31:00,
2013-11-11 10:40:00,65.3,51.9,30.24,SSE,151,0.0,0.0,62,0.00,,,0.00,Wunderground v.1.15,2013-11-11 16:40:00,
2013-11-11 10:46:00,66.1,51.8,30.23,SSE,151,0.0,0.0,60,0.00,,,0.00,Wunderground v.1.15,2013-11-11 16:46:00,
2013-11-11 10:55:00,67.6,52.3,30.23,SSE,151,0.0,0.0,58,0.00,,,0.00,Wunderground v.1.15,2013-11-11 16:55:00,
2013-11-11 11:01:00,68.1,50.8,30.23,SSE,151,0.0,0.0,54,0.00,,,0.00,Wunderground v.1.15,2013-11-11 17:01:00,
2013-11-11 11:10:00,69.6,50.1,30.23,SSE,151,0.0,0.0,50,0.00,,,0.00,Wunderground v.1.15,2013-11-11 17:10:00,
2013-11-11 11:16:00,70.3,51.3,30.22,SSE,151,0.0,0.0,51,0.00,,,0.00,Wunderground v.1.15,2013-11-11 17:16:00,
2013-11-11 11:25:00,70.9,51.3,30.22,SSE,151,0.0,0.0,50,0.00,,,0.00,Wunderground v.1.15,2013-11-11 17:25:00,
2013-11-11 11:31:00,71.3,52.2,30.21,SSE,151,0.0,0.0,51,0.00,,,0.00,Wunderground v.1.15,2013-11-11 17:31:00,
2013-11-11 11:40:00,72.0,52.9,30.21,SSE,151,0.0,0.0,51,0.00,,,0.00,Wunderground v.1.15,2013-11-11 17:40:00,
2013-11-11 11:50:00,72.5,52.8,30.20,SSE,151,0.0,0.0,50,0.00,,,0.00,Wunderground v.1.15,2013-11-11 17:50:00,
2013-11-11 11:56:00,72.5,52.8,30.20,SSE,151,0.0,0.0,50,0.00,,,0.00,Wunderground v.1.15,2013-11-11 17:56:00,
2013-11-11 12:05:00,73.2,53.4,30.19,SSE,151,0.0,0.0,50,0.00,,,0.00,Wunderground v.1.15,2013-11-11 18:05:00,
2013-11-11 12:11:00,73.7,53.9,30.19,SSE,151,0.0,0.0,50,0.00,,,0.00,Wunderground v.1.15,2013-11-11 18:11:00,
2013-11-11 12:20:00,74.0,55.3,30.19,SSE,151,0.0,0.0,52,0.00,,,0.00,Wunderground v.1.15,2013-11-11 18:20:00,
2013-11-11 12:26:00,73.3,54.1,30.19,SSE,151,0.0,0.0,51,0.00,,,0.00,Wunderground v.1.15,2013-11-11 18:26:00,
2013-11-11 12:35:00,73.9,56.7,30.18,SSE,151,0.0,0.0,55,0.00,,,0.00,Wunderground v.1.15,2013-11-11 18:35:00,
2013-11-11 12:45:00,74.2,54.4,30.17,SSE,151,0.0,0.0,50,0.00,,,0.00,Wunderground v.1.15,2013-11-11 18:45:00,
2013-11-11 12:50:00,74.6,56.3,30.17,SSE,151,0.0,0.0,53,0.00,,,0.00,Wunderground v.1.15,2013-11-11 18:50:00,
2013-11-11 13:00:00,74.7,54.8,30.16,SSE,151,0.0,0.0,50,0.00,,,0.00,Wunderground v.1.15,2013-11-11 19:00:00,
2013-11-11 13:05:00,74.7,55.4,30.16,SSE,151,0.0,0.0,51,0.00,,,0.00,Wunderground v.1.15,2013-11-11 19:05:00,
2013-11-11 13:11:00,74.4,55.1,30.16,SSE,151,0.0,0.0,51,0.00,,,0.00,Wunderground v.1.15,2013-11-11 19:11:00,
2013-11-11 13:20:00,75.1,55.2,30.15,SSE,151,0.0,0.0,50,0.00,,,0.00,Wunderground v.1.15,2013-11-11 19:20:00,
2013-11-11 13:30:00,75.8,55.3,30.14,SSE,151,0.0,0.0,49,0.00,,,0.00,Wunderground v.1.15,2013-11-11 19:30:00,
2013-11-11 13:35:00,76.0,54.3,30.14,SSE,151,0.0,0.0,47,0.00,,,0.00,Wunderground v.1.15,2013-11-11 19:35:00,
2013-11-11 13:45:00,75.8,54.1,30.13,SSE,151,0.0,0.0,47,0.00,,,0.00,Wunderground v.1.15,2013-11-11 19:45:00,
2013-11-11 13:51:00,75.6,54.5,30.13,SSE,151,0.0,0.0,48,0.00,,,0.00,Wunderground v.1.15,2013-11-11 19:51:00,
2013-11-11 14:00:00,75.1,55.2,30.12,SSE,151,0.0,0.0,50,0.00,,,0.00,Wunderground v.1.15,2013-11-11 20:00:00,
2013-11-11 14:06:00,75.1,55.2,30.12,SSE,151,0.0,0.0,50,0.00,,,0.00,Wunderground v.1.15,2013-11-11 20:06:00,
2013-11-11 14:15:00,74.7,53.7,30.13,SSE,151,0.0,0.0,48,0.00,,,0.00,Wunderground v.1.15,2013-11-11 20:15:00,
2013-11-11 14:25:00,74.2,56.0,30.13,SSE,151,0.0,0.0,53,0.00,,,0.00,Wunderground v.1.15,2013-11-11 20:25:00,
2013-11-11 14:35:00,74.7,54.3,30.12,SSE,151,0.0,0.0,49,0.00,,,0.00,Wunderground v.1.15,2013-11-11 20:35:00,
2013-11-11 14:45:00,75.1,54.6,30.12,SSE,151,0.0,0.0,49,0.00,,,0.00,Wunderground v.1.15,2013-11-11 20:45:00,
2013-11-11 14:50:00,74.9,55.0,30.12,SSE,151,0.0,0.0,50,0.00,,,0.00,Wunderground v.1.15,2013-11-11 20:50:00,
2013-11-11 15:00:00,74.2,56.0,30.12,SSE,151,0.0,0.0,53,0.00,,,0.00,Wunderground v.1.15,2013-11-11 21:00:00,
2013-11-11 15:05:00,73.7,55.5,30.12,SSE,151,0.0,8.0,53,0.00,,,0.00,Wunderground v.1.15,2013-11-11 21:05:00,
2013-11-11 15:15:00,73.2,55.0,30.12,SSE,151,2.0,2.0,53,0.00,,,0.00,Wunderground v.1.15,2013-11-11 21:15:00,
2013-11-11 15:21:00,73.2,55.6,30.12,SSE,151,1.0,2.0,54,0.00,,,0.00,Wunderground v.1.15,2013-11-11 21:21:00,
2013-11-11 15:30:00,73.0,55.9,30.12,SSE,151,1.0,1.0,55,0.00,,,0.00,Wunderground v.1.15,2013-11-11 21:30:00,
2013-11-11 15:36:00,72.7,55.6,30.12,SSE,151,0.0,3.0,55,0.00,,,0.00,Wunderground v.1.15,2013-11-11 21:36:00,
2013-11-11 15:45:00,72.0,55.4,30.12,SSE,151,0.0,0.0,56,0.00,,,0.00,Wunderground v.1.15,2013-11-11 21:45:00,
2013-11-11 15:55:00,71.1,55.6,30.12,SSE,151,0.0,0.0,58,0.00,,,0.00,Wunderground v.1.15,2013-11-11 21:55:00,
2013-11-11 16:00:00,70.9,55.9,30.13,SSE,151,0.0,0.0,59,0.00,,,0.00,Wunderground v.1.15,2013-11-11 22:00:00,
2013-11-11 16:10:00,70.6,55.6,30.13,SSE,151,0.0,0.0,59,0.00,,,0.00,Wunderground v.1.15,2013-11-11 22:10:00,
2013-11-11 16:15:00,70.3,55.3,30.13,SSE,151,0.0,0.0,59,0.00,,,0.00,Wunderground v.1.15,2013-11-11 22:15:00,
2013-11-11 16:21:00,70.1,56.0,30.13,SSE,151,0.0,0.0,61,0.00,,,0.00,Wunderground v.1.15,2013-11-11 22:21:00,
2013-11-11 16:30:00,69.4,56.3,30.13,SSE,151,0.0,0.0,63,0.00,,,0.00,Wunderground v.1.15,2013-11-11 22:30:00,
2013-11-11 16:40:00,68.6,55.5,30.13,SSE,151,0.0,0.0,63,0.00,,,0.00,Wunderground v.1.15,2013-11-11 22:40:00,
2013-11-11 16:45:00,68.3,56.1,30.13,SSE,151,0.0,0.0,65,0.00,,,0.00,Wunderground v.1.15,2013-11-11 22:45:00,
2013-11-11 16:55:00,67.6,56.2,30.13,SSE,151,0.0,0.0,67,0.00,,,0.00,Wunderground v.1.15,2013-11-11 22:55:00,
2013-11-11 17:01:00,67.3,56.0,30.13,SSE,151,0.0,0.0,67,0.00,,,0.00,Wunderground v.1.15,2013-11-11 23:01:00,
2013-11-11 17:10:00,66.4,55.9,30.13,SSE,151,0.0,0.0,69,0.00,,,0.00,Wunderground v.1.15,2013-11-11 23:10:00,
2013-11-11 17:20:00,65.5,55.8,30.13,SSE,151,0.0,0.0,71,0.00,,,0.00,Wunderground v.1.15,2013-11-11 23:20:00,
2013-11-11 17:26:00,65.0,55.8,30.13,SSE,151,0.0,0.0,72,0.00,,,0.00,Wunderground v.1.15,2013-11-11 23:26:00,
2013-11-11 17:35:00,63.9,55.4,30.14,SSE,151,0.0,0.0,74,0.00,,,0.00,Wunderground v.1.15,2013-11-11 23:35:00,
2013-11-11 17:41:00,63.4,55.7,30.14,SSE,151,0.0,0.0,76,0.00,,,0.00,Wunderground v.1.15,2013-11-11 23:41:00,
2013-11-11 17:50:00,62.3,55.0,30.14,SSE,151,0.0,0.0,77,0.00,,,0.00,Wunderground v.1.15,2013-11-11 23:50:00,
2013-11-11 17:56:00,61.8,54.9,30.14,SSE,151,0.0,0.0,78,0.00,,,0.00,Wunderground v.1.15,2013-11-11 23:56:00,
2013-11-11 18:05:00,60.9,54.3,30.14,SSE,151,0.0,0.0,79,0.00,,,0.00,Wunderground v.1.15,2013-11-12 00:05:00,
2013-11-11 18:11:00,60.4,53.9,30.14,SSE,151,0.0,0.0,79,0.00,,,0.00,Wunderground v.1.15,2013-11-12 00:11:00,
2013-11-11 18:20:00,59.8,54.0,30.15,SSE,151,0.0,0.0,81,0.00,,,0.00,Wunderground v.1.15,2013-11-12 00:20:00,
2013-11-11 18:30:00,59.0,53.5,30.16,SSE,151,0.0,0.0,82,0.00,,,0.00,Wunderground v.1.15,2013-11-12 00:30:00,
2013-11-11 18:36:00,58.7,53.2,30.16,SSE,151,0.0,0.0,82,0.00,,,0.00,Wunderground v.1.15,2013-11-12 00:36:00,
2013-11-11 18:45:00,58.1,53.0,30.16,SSE,151,0.0,0.0,83,0.00,,,0.00,Wunderground v.1.15,2013-11-12 00:45:00,
2013-11-11 18:51:00,58.0,53.2,30.16,SSE,151,0.0,0.0,84,0.00,,,0.00,Wunderground v.1.15,2013-11-12 00:51:00,
2013-11-11 19:00:00,57.5,53.0,30.17,SSE,151,0.0,0.0,85,0.00,,,0.00,Wunderground v.1.15,2013-11-12 01:00:00,
2013-11-11 19:10:00,57.2,52.7,30.17,SSE,151,0.0,0.0,85,0.00,,,0.00,Wunderground v.1.15,2013-11-12 01:10:00,
2013-11-11 19:15:00,57.2,52.7,30.17,SSE,151,0.0,0.0,85,0.00,,,0.00,Wunderground v.1.15,2013-11-12 01:15:00,
2013-11-11 19:25:00,56.9,52.8,30.17,SSE,151,0.0,0.0,86,0.00,,,0.00,Wunderground v.1.15,2013-11-12 01:25:00,
2013-11-11 19:30:00,56.6,52.5,30.18,SSE,151,0.0,0.0,86,0.00,,,0.00,Wunderground v.1.15,2013-11-12 01:30:00,
2013-11-11 19:40:00,56.3,52.2,30.18,SSE,151,0.0,0.0,86,0.00,,,0.00,Wunderground v.1.15,2013-11-12 01:40:00,
2013-11-11 19:45:00,56.2,52.4,30.18,SSE,151,0.0,0.0,87,0.00,,,0.00,Wunderground v.1.15,2013-11-12 01:45:00,
2013-11-11 19:55:00,55.9,52.4,30.18,SSE,151,0.0,0.0,88,0.00,,,0.00,Wunderground v.1.15,2013-11-12 01:55:00,
2013-11-11 20:01:00,55.7,52.2,30.18,SSE,151,0.0,0.0,88,0.00,,,0.00,Wunderground v.1.15,2013-11-12 02:01:00,
2013-11-11 20:10:00,55.4,51.9,30.18,SSE,151,0.0,0.0,88,0.00,,,0.00,Wunderground v.1.15,2013-11-12 02:10:00,
2013-11-11 20:16:00,55.3,51.8,30.19,SSE,151,0.0,0.0,88,0.00,,,0.00,Wunderground v.1.15,2013-11-12 02:16:00,
2013-11-11 20:25:00,55.1,51.9,30.19,SSE,151,0.0,0.0,89,0.00,,,0.00,Wunderground v.1.15,2013-11-12 02:25:00,
2013-11-11 20:35:00,54.8,51.6,30.19,SSE,151,0.0,0.0,89,0.00,,,0.00,Wunderground v.1.15,2013-11-12 02:35:00,
2013-11-11 20:41:00,54.7,51.5,30.19,SSE,151,0.0,0.0,89,0.00,,,0.00,Wunderground v.1.15,2013-11-12 02:41:00,
2013-11-11 20:50:00,54.5,51.6,30.19,SSE,151,0.0,0.0,90,0.00,,,0.00,Wunderground v.1.15,2013-11-12 02:50:00,
2013-11-11 20:56:00,54.4,51.5,30.19,SSE,151,0.0,0.0,90,0.00,,,0.00,Wunderground v.1.15,2013-11-12 02:56:00,
2013-11-11 21:05:00,54.2,51.6,30.20,SSE,151,0.0,0.0,91,0.00,,,0.00,Wunderground v.1.15,2013-11-12 03:05:00,
2013-11-11 21:15:00,54.2,51.6,30.20,SSE,151,0.0,0.0,91,0.00,,,0.00,Wunderground v.1.15,2013-11-12 03:15:00,
2013-11-11 21:20:00,54.2,51.6,30.20,SSE,151,0.0,0.0,91,0.00,,,0.00,Wunderground v.1.15,2013-11-12 03:20:00,
2013-11-11 21:26:00,54.1,51.8,30.20,SSE,151,0.0,0.0,92,0.00,,,0.00,Wunderground v.1.15,2013-11-12 03:26:00,
2013-11-11 21:35:00,53.9,51.6,30.20,SSE,151,0.0,0.0,92,0.00,,,0.00,Wunderground v.1.15,2013-11-12 03:35:00,
2013-11-11 21:45:00,53.8,51.5,30.20,SSE,151,0.0,0.0,92,0.00,,,0.00,Wunderground v.1.15,2013-11-12 03:45:00,
2013-11-11 21:51:00,53.8,51.5,30.20,SSE,151,0.0,0.0,92,0.00,,,0.00,Wunderground v.1.15,2013-11-12 03:51:00,
2013-11-11 22:00:00,53.6,51.3,30.21,SSE,151,0.0,0.0,92,0.00,,,0.00,Wunderground v.1.15,2013-11-12 04:00:00,
2013-11-11 22:10:00,53.6,51.6,30.21,SSE,151,0.0,0.0,93,0.00,,,0.00,Wunderground v.1.15,2013-11-12 04:10:00,
2013-11-11 22:15:00,53.6,51.6,30.20,SSE,151,0.0,0.0,93,0.00,,,0.00,Wunderground v.1.15,2013-11-12 04:15:00,
2013-11-11 22:25:00,53.9,52.2,30.20,SSE,151,0.0,0.0,94,0.00,,,0.00,Wunderground v.1.15,2013-11-12 04:25:00,
2013-11-11 22:31:00,54.1,52.7,30.21,SSE,151,0.0,0.0,95,0.00,,,0.00,Wunderground v.1.15,2013-11-12 04:31:00,
2013-11-11 22:40:00,54.2,52.8,30.21,SSE,151,0.0,0.0,95,0.00,,,0.00,Wunderground v.1.15,2013-11-12 04:40:00,
2013-11-11 22:45:00,54.4,53.0,30.21,SSE,151,0.0,0.0,95,0.00,,,0.00,Wunderground v.1.15,2013-11-12 04:45:00,
2013-11-11 22:55:00,54.2,52.8,30.21,SSE,151,0.0,0.0,95,0.00,,,0.00,Wunderground v.1.15,2013-11-12 04:55:00,
2013-11-11 23:00:00,54.2,52.8,30.21,SSE,151,0.0,0.0,95,0.00,,,0.00,Wunderground v.1.15,2013-11-12 05:00:00,
2013-11-11 23:05:00,54.1,52.7,30.21,SSE,151,0.0,0.0,95,0.00,,,0.00,Wunderground v.1.15,2013-11-12 05:05:00,
2013-11-11 23:10:00,53.9,52.5,30.21,SSE,151,0.0,0.0,95,0.00,,,0.00,Wunderground v.1.15,2013-11-12 05:10:00,
2013-11-11 23:16:00,53.9,52.5,30.21,SSE,151,0.0,0.0,95,0.00,,,0.00,Wunderground v.1.15,2013-11-12 05:16:00,
2013-11-11 23:26:00,53.6,52.2,30.21,SSE,151,0.0,0.0,95,0.00,,,0.00,Wunderground v.1.15,2013-11-12 05:26:00,
2013-11-11 23:30:00,53.5,51.8,30.21,SSE,151,0.0,0.0,94,0.00,,,0.00,Wunderground v.1.15,2013-11-12 05:30:00,
2013-11-11 23:35:00,53.3,51.6,30.21,SSE,151,0.0,0.0,94,0.00,,,0.00,Wunderground v.1.15,2013-11-12 05:35:00,
2013-11-11 23:45:00,53.1,51.4,30.21,SSE,151,0.0,0.0,94,0.00,,,0.00,Wunderground v.1.15,2013-11-12 05:45:00,
2013-11-11 23:50:00,52.9,51.2,30.21,SSE,151,0.0,0.0,94,0.00,,,0.00,Wunderground v.1.15,2013-11-12 05:50:00,